Location: Cogollal
(10.0582°N, 67.8466°W)
Time: 06:16:19
(UTC+00:00)

ARGOS - Visible Passes

Search period start: 16 July 2024 00:00
Search period end: 26 July 2024 00:00
Orbit: 820 x 833 km, 98.4° (Epoch: 15 July)

Date Brightness Start Highest point End Pass type
(mag) Time Alt. Az. Time Alt. Az. Time Alt. Az.
16 Jul 5.2 08:19:12 10° NE 08:23:25 23° E 08:27:37 10° SSE visible
17 Jul 5.8 08:01:49 10° ENE 08:04:30 14° E 08:07:10 10° SE visible
17 Jul 3.7 09:39:35 10° N 09:44:34 39° WNW 09:49:32 10° SW visible
18 Jul 3.1 09:20:23 10° N 09:25:42 65° WNW 09:31:02 10° SSW visible
19 Jul 3.3 09:01:27 10° NNE 09:06:50 77° ESE 09:12:12 10° S visible
20 Jul 4.1 08:42:48 10° NNE 08:47:56 46° E 08:53:03 10° S visible
21 Jul 5.0 08:24:30 10° NE 08:29:02 28° E 08:33:32 10° SSE visible
22 Jul 5.6 08:06:47 10° ENE 08:10:07 17° E 08:13:26 10° SE visible
22 Jul 3.9 09:45:23 10° NNW 09:50:09 33° WNW 09:54:54 10° SW visible
23 Jul 3.3 09:26:04 10° N 09:31:17 55° WNW 09:36:31 10° SSW visible
24 Jul 3.1 09:07:02 10° NNE 09:12:26 90° SE 09:17:47 10° SSW visible
25 Jul 3.8 08:48:18 10° NNE 08:53:32 54° ESE 08:58:45 10° S visible
